Home   Weather   Arica   Past weeks

Flag for Chile Past Weather in Arica, Chile — Yesterday and Last 2 Weeks

Now
66 °F

Clear.


Feels Like: 66 °F
Forecast: 66 / 73 °F
Wind: 5 mph from Northeast

Location: Arica Airport

Current Time: Dec 4, 2016 at 5:20:04 am

Latest Report: Dec 4, 2016 at 5:00 am


Visibility: 10 mi

Pressure: 29.95 "Hg

Humidity: 68%

Dew Point: 55 °F

Location of AricaLocation

Past Weather in Arica — Graph

°F

Arica Temperature Yesterday

Maximum temperature yesterday: 73 °F (at 12:00 pm)
Minimum temperature yesterday: 68 °F (at 12:00 am)
Average temperature yesterday: 70 °F

High & Low Weather Summary for the Past Weeks

 TemperatureHumidityPressure
High73 °F (Nov 20, 2:00 pm)78% (Nov 19, 10:00 pm)30.07 "Hg (Nov 19, 10:00 pm)
Low59 °F (Nov 19, 6:00 am)47% (Nov 22, 12:00 pm)29.83 "Hg (Nov 29, 4:00 pm)
Average67 °F66%29.95 "Hg
* Reported Nov 19 4:00 am — Dec 4 4:00 am, Arica, Weather by CustomWeather, © 2016

Note: Actual official high and low records may vary slightly from our data, if they occured in-between our weather recording intervals... More about our weather records

Advertising

Arica Weather History for the Previous 24 Hours

Scroll right to see more
 ConditionsComfort  
Time TempWeatherWind HumidityBarometerVisibility
4:00 am
Sun, Dec 4
64 °FClear.2 mph68%29.95 "Hg10 mi
3:00 am66 °FClear.5 mph68%29.98 "Hg10 mi
2:00 am66 °FClear.5 mph68%30.01 "Hg10 mi
1:00 am66 °FClear.No wind73%30.04 "Hg10 mi
12:00 am68 °FClear.No wind69%30.04 "Hg10 mi
11:00 pm
Sat, Dec 3
68 °FClear.No wind69%30.04 "Hg10 mi
10:00 pm68 °FClear.2 mph73%30.01 "Hg10 mi
9:00 pm68 °FClear.6 mph73%30.01 "Hg10 mi
8:00 pm70 °FSunny.9 mph69%29.95 "Hg10 mi
7:00 pm70 °FSunny.10 mph64%29.95 "Hg10 mi
6:00 pm72 °FSunny.13 mph61%29.92 "Hg10 mi
5:00 pm72 °FSunny.15 mph61%29.92 "Hg10 mi
4:00 pm73 °FSunny.15 mph57%29.92 "Hg10 mi
3:00 pm73 °FSunny.16 mph53%29.95 "Hg10 mi
2:00 pm73 °FSunny.17 mph57%29.95 "Hg10 mi
1:00 pm73 °FSunny.15 mph57%29.98 "Hg10 mi
12:00 pm73 °FSunny.13 mph53%29.98 "Hg10 mi
11:00 am72 °FPartly sunny.9 mph57%30.01 "HgN/A
10:00 am70 °FOvercast.7 mph60%30.01 "HgN/A
9:00 am70 °FOvercast.5 mph64%29.98 "HgN/A
8:00 am68 °FOvercast.5 mph64%29.98 "HgN/A
7:00 am68 °FOvercast.5 mph69%29.98 "HgN/A
6:00 am68 °FOvercast.5 mph69%29.98 "HgN/A
5:00 am68 °FOvercast.5 mph69%29.98 "HgN/A
Weather by CustomWeather, © 2016

See weather overviewHow to use our weather pages